Time,TemperatureF,DewpointF,PressureIn,WindDirection,WindDirectionDegrees,WindSpeedMPH,WindSpeedGustMPH,Humidity,HourlyPrecipIn,Conditions,Clouds,dailyrainin,SolarRadiationWatts/m^2,SoftwareType,DateUTC
2013-01-17 00:00:00,23.0,10.8,30.41,North,350,0.0,0.0,59,0.00,,CLR,0.00,0.00,VWS V14.01,2013-01-17 07:00:00,
2013-01-17 00:05:00,23.0,10.8,30.41,North,350,0.0,0.0,59,0.00,,CLR,0.00,0.00,VWS V14.01,2013-01-17 07:05:00,
2013-01-17 00:10:00,22.9,10.7,30.41,North,350,0.0,1.0,59,0.00,,CLR,0.00,0.00,VWS V14.01,2013-01-17 07:10:00,
2013-01-17 00:15:00,22.8,10.6,30.41,North,350,0.0,0.0,59,0.00,,CLR,0.00,0.00,VWS V14.01,2013-01-17 07:15:00,
2013-01-17 00:20:00,22.7,10.5,30.41,North,350,0.0,0.0,59,0.00,,CLR,0.00,0.00,VWS V14.01,2013-01-17 07:20:00,
2013-01-17 00:25:00,22.6,10.4,30.41,North,350,0.0,0.0,59,0.00,,CLR,0.00,0.00,VWS V14.01,2013-01-17 07:25:00,
2013-01-17 00:30:00,22.5,10.7,30.41,North,350,0.0,0.0,60,0.00,,CLR,0.00,0.00,VWS V14.01,2013-01-17 07:30:00,
2013-01-17 00:35:00,22.3,10.9,30.41,North,350,0.0,0.0,61,0.00,,CLR,0.00,0.00,VWS V14.01,2013-01-17 07:35:00,
2013-01-17 00:41:00,22.2,10.4,30.41,North,350,0.0,1.0,60,0.00,,CLR,0.00,0.00,VWS V14.01,2013-01-17 07:41:00,
2013-01-17 00:46:00,22.1,10.7,30.42,North,350,0.0,0.0,61,0.00,,CLR,0.00,0.00,VWS V14.01,2013-01-17 07:46:00,
2013-01-17 00:51:00,21.9,10.5,30.42,North,350,0.0,0.0,61,0.00,,CLR,0.00,0.00,VWS V14.01,2013-01-17 07:51:00,
2013-01-17 00:56:00,21.7,10.3,30.42,North,350,0.0,0.0,61,0.00,,CLR,0.00,0.00,VWS V14.01,2013-01-17 07:56:00,
2013-01-17 01:01:00,21.6,10.2,30.42,North,350,0.0,0.0,61,0.00,,CLR,0.00,0.00,VWS V14.01,2013-01-17 08:01:00,
2013-01-17 01:06:00,21.4,10.1,30.42,North,350,0.0,0.0,61,0.00,,CLR,0.00,0.00,VWS V14.01,2013-01-17 08:06:00,
2013-01-17 01:11:00,21.3,10.0,30.42,North,350,0.0,0.0,61,0.00,,CLR,0.00,0.00,VWS V14.01,2013-01-17 08:11:00,
2013-01-17 01:16:00,21.1,9.8,30.42,North,350,0.0,0.0,61,0.00,,CLR,0.00,0.00,VWS V14.01,2013-01-17 08:16:00,
2013-01-17 01:21:00,20.9,9.9,30.42,North,350,0.0,0.0,62,0.00,,CLR,0.00,0.00,VWS V14.01,2013-01-17 08:21:00,
2013-01-17 01:26:00,20.8,9.9,30.42,North,350,0.0,0.0,62,0.00,,CLR,0.00,0.00,VWS V14.01,2013-01-17 08:26:00,
2013-01-17 01:32:00,20.6,10.0,30.42,North,350,0.0,0.0,63,0.00,,CLR,0.00,0.00,VWS V14.01,2013-01-17 08:32:00,
2013-01-17 01:37:00,20.4,9.8,30.43,North,350,0.0,0.0,63,0.00,,CLR,0.00,0.00,VWS V14.01,2013-01-17 08:37:00,
2013-01-17 01:42:00,20.2,9.6,30.43,North,350,0.0,0.0,63,0.00,,CLR,0.00,0.00,VWS V14.01,2013-01-17 08:42:00,
2013-01-17 01:47:00,20.0,9.8,30.43,North,350,0.0,0.0,64,0.00,,CLR,0.00,0.00,VWS V14.01,2013-01-17 08:47:00,
2013-01-17 01:52:00,19.8,9.9,30.43,North,350,0.0,0.0,65,0.00,,CLR,0.00,0.00,VWS V14.01,2013-01-17 08:52:00,
2013-01-17 01:57:00,19.7,9.9,30.43,North,350,0.0,0.0,65,0.00,,CLR,0.00,0.00,VWS V14.01,2013-01-17 08:57:00,
2013-01-17 02:02:00,19.6,9.8,30.43,North,350,0.0,0.0,65,0.00,,CLR,0.00,0.00,VWS V14.01,2013-01-17 09:02:00,
2013-01-17 02:07:00,19.5,9.7,30.44,North,350,0.0,0.0,65,0.00,,CLR,0.00,0.00,VWS V14.01,2013-01-17 09:07:00,
2013-01-17 02:12:00,19.4,9.6,30.43,North,350,0.0,0.0,65,0.00,,CLR,0.00,0.00,VWS V14.01,2013-01-17 09:12:00,
2013-01-17 02:17:00,19.2,9.4,30.43,North,350,0.0,2.0,65,0.00,,CLR,0.00,0.00,VWS V14.01,2013-01-17 09:17:00,
2013-01-17 02:22:00,19.0,9.2,30.43,North,350,0.0,0.0,65,0.00,,CLR,0.00,0.00,VWS V14.01,2013-01-17 09:22:00,
2013-01-17 02:27:00,18.9,9.1,30.43,North,350,0.0,0.0,65,0.00,,CLR,0.00,0.00,VWS V14.01,2013-01-17 09:27:00,
2013-01-17 02:32:00,18.7,9.2,30.43,North,350,0.0,0.0,66,0.00,,CLR,0.00,0.00,VWS V14.01,2013-01-17 09:32:00,
2013-01-17 02:38:00,18.6,9.1,30.43,North,350,0.0,0.0,66,0.00,,CLR,0.00,0.00,VWS V14.01,2013-01-17 09:38:00,
2013-01-17 02:43:00,18.5,9.1,30.43,North,350,0.0,1.0,66,0.00,,CLR,0.00,0.00,VWS V14.01,2013-01-17 09:43:00,
2013-01-17 02:48:00,18.3,8.9,30.43,North,350,0.0,0.0,66,0.00,,CLR,0.00,0.00,VWS V14.01,2013-01-17 09:48:00,
2013-01-17 02:53:00,18.2,8.8,30.43,North,350,0.0,0.0,66,0.00,,CLR,0.00,0.00,VWS V14.01,2013-01-17 09:53:00,
2013-01-17 02:58:00,18.0,8.9,30.43,North,350,0.0,0.0,67,0.00,,CLR,0.00,0.00,VWS V14.01,2013-01-17 09:58:00,
2013-01-17 03:03:00,17.9,8.8,30.43,North,350,0.0,0.0,67,0.00,,CLR,0.00,0.00,VWS V14.01,2013-01-17 10:03:00,
2013-01-17 03:08:00,17.7,8.6,30.43,North,350,0.0,0.0,67,0.00,,CLR,0.00,0.00,VWS V14.01,2013-01-17 10:08:00,
2013-01-17 03:13:00,17.6,8.9,30.43,North,350,0.0,0.0,68,0.00,,CLR,0.00,0.00,VWS V14.01,2013-01-17 10:13:00,
2013-01-17 03:18:00,17.5,9.1,30.43,North,350,0.0,0.0,69,0.00,,CLR,0.00,0.00,VWS V14.01,2013-01-17 10:18:00,
2013-01-17 03:23:00,17.5,9.1,30.43,North,350,0.0,0.0,69,0.00,,CLR,0.00,0.00,VWS V14.01,2013-01-17 10:23:00,
2013-01-17 03:28:00,17.4,9.0,30.43,North,350,0.0,0.0,69,0.00,,CLR,0.00,0.00,VWS V14.01,2013-01-17 10:28:00,
2013-01-17 03:33:00,17.4,9.3,30.43,North,350,0.0,0.0,70,0.00,,CLR,0.00,0.00,VWS V14.01,2013-01-17 10:33:00,
2013-01-17 03:38:00,17.4,9.3,30.43,North,350,0.0,0.0,70,0.00,,CLR,0.00,0.00,VWS V14.01,2013-01-17 10:38:00,
2013-01-17 03:43:00,17.3,9.2,30.43,North,350,0.0,0.0,70,0.00,,CLR,0.00,0.00,VWS V14.01,2013-01-17 10:43:00,
2013-01-17 03:48:00,17.3,9.2,30.43,North,350,0.0,0.0,70,0.00,,CLR,0.00,0.00,VWS V14.01,2013-01-17 10:48:00,
2013-01-17 03:53:00,17.2,9.1,30.43,North,350,1.0,1.0,70,0.00,,CLR,0.00,0.00,VWS V14.01,2013-01-17 10:53:00,
2013-01-17 03:58:00,17.2,9.1,30.43,North,350,0.0,2.0,70,0.00,,CLR,0.00,0.00,VWS V14.01,2013-01-17 10:58:00,
2013-01-17 04:03:00,17.1,9.0,30.43,North,350,0.0,0.0,70,0.00,,CLR,0.00,0.00,VWS V14.01,2013-01-17 11:03:00,
2013-01-17 04:08:00,17.1,9.0,30.43,North,350,0.0,0.0,70,0.00,,CLR,0.00,0.00,VWS V14.01,2013-01-17 11:08:00,
2013-01-17 04:13:00,17.1,9.0,30.43,North,350,0.0,1.0,70,0.00,,CLR,0.00,0.00,VWS V14.01,2013-01-17 11:13:00,
2013-01-17 04:18:00,17.0,9.2,30.43,North,350,0.0,1.0,71,0.00,,CLR,0.00,0.00,VWS V14.01,2013-01-17 11:18:00,
2013-01-17 04:23:00,16.9,9.1,30.43,North,350,0.0,0.0,71,0.00,,CLR,0.00,0.00,VWS V14.01,2013-01-17 11:23:00,
2013-01-17 04:29:00,16.9,9.1,30.43,North,350,0.0,0.0,71,0.00,,CLR,0.00,0.00,VWS V14.01,2013-01-17 11:29:00,
2013-01-17 04:34:00,16.8,9.0,30.43,North,350,0.0,0.0,71,0.00,,CLR,0.00,0.00,VWS V14.01,2013-01-17 11:34:00,
2013-01-17 04:39:00,16.6,9.2,30.43,North,350,0.0,0.0,72,0.00,,CLR,0.00,0.00,VWS V14.01,2013-01-17 11:39:00,
2013-01-17 04:44:00,16.5,9.1,30.43,North,350,0.0,2.0,72,0.00,,CLR,0.00,0.00,VWS V14.01,2013-01-17 11:44:00,
2013-01-17 04:49:00,16.3,8.9,30.42,North,350,0.0,2.0,72,0.00,,CLR,0.00,0.00,VWS V14.01,2013-01-17 11:49:00,
2013-01-17 04:54:00,16.2,9.1,30.43,North,350,0.0,1.0,73,0.00,,CLR,0.00,0.00,VWS V14.01,2013-01-17 11:54:00,
2013-01-17 04:59:00,16.1,9.0,30.42,North,350,0.0,2.0,73,0.00,,CLR,0.00,0.00,VWS V14.01,2013-01-17 11:59:00,
2013-01-17 05:04:00,16.1,9.0,30.43,North,350,0.0,1.0,73,0.00,,CLR,0.00,0.00,VWS V14.01,2013-01-17 12:04:00,
2013-01-17 05:09:00,16.0,8.9,30.43,North,350,0.0,0.0,73,0.00,,CLR,0.00,0.00,VWS V14.01,2013-01-17 12:09:00,
2013-01-17 05:14:00,15.9,9.1,30.43,North,350,0.0,0.0,74,0.00,,CLR,0.00,0.00,VWS V14.01,2013-01-17 12:14:00,
2013-01-17 05:19:00,15.8,9.0,30.43,North,350,0.0,0.0,74,0.00,,CLR,0.00,0.00,VWS V14.01,2013-01-17 12:19:00,
2013-01-17 05:24:00,15.8,9.0,30.43,North,350,0.0,0.0,74,0.00,,CLR,0.00,0.00,VWS V14.01,2013-01-17 12:24:00,
2013-01-17 05:29:00,15.7,8.9,30.43,North,350,0.0,0.0,74,0.00,,CLR,0.00,0.00,VWS V14.01,2013-01-17 12:29:00,
2013-01-17 05:34:00,15.7,8.9,30.43,North,350,0.0,0.0,74,0.00,,CLR,0.00,0.00,VWS V14.01,2013-01-17 12:34:00,
2013-01-17 05:39:00,15.5,9.0,30.43,North,350,0.0,0.0,75,0.00,,CLR,0.00,0.00,VWS V14.01,2013-01-17 12:39:00,
2013-01-17 05:44:00,15.5,9.0,30.43,North,350,0.0,0.0,75,0.00,,CLR,0.00,0.00,VWS V14.01,2013-01-17 12:44:00,
2013-01-17 05:49:00,15.4,8.6,30.44,North,350,0.0,0.0,74,0.00,,CLR,0.00,0.00,VWS V14.01,2013-01-17 12:49:00,
2013-01-17 05:55:00,15.3,8.5,30.44,North,350,0.0,0.0,74,0.00,,CLR,0.00,0.00,VWS V14.01,2013-01-17 12:55:00,
2013-01-17 06:00:00,15.2,8.7,30.43,North,350,0.0,0.0,75,0.00,,CLR,0.00,0.00,VWS V14.01,2013-01-17 13:00:00,
2013-01-17 06:05:00,15.1,8.6,30.43,North,350,0.0,0.0,75,0.00,,CLR,0.00,0.00,VWS V14.01,2013-01-17 13:05:00,
2013-01-17 06:10:00,15.0,8.5,30.43,North,350,0.0,0.0,75,0.00,,CLR,0.00,0.00,VWS V14.01,2013-01-17 13:10:00,
2013-01-17 06:15:00,14.9,8.4,30.44,North,350,0.0,0.0,75,0.00,,CLR,0.00,0.00,VWS V14.01,2013-01-17 13:15:00,
2013-01-17 06:20:00,14.8,8.3,30.44,North,350,0.0,0.0,75,0.00,,CLR,0.00,0.00,VWS V14.01,2013-01-17 13:20:00,
2013-01-17 06:25:00,14.7,8.2,30.44,North,350,0.0,0.0,75,0.00,,CLR,0.00,0.00,VWS V14.01,2013-01-17 13:25:00,
2013-01-17 06:30:00,14.7,8.2,30.44,North,350,0.0,0.0,75,0.00,,CLR,0.00,0.00,VWS V14.01,2013-01-17 13:30:00,
2013-01-17 06:35:00,14.6,8.1,30.44,North,350,0.0,0.0,75,0.00,,CLR,0.00,0.00,VWS V14.01,2013-01-17 13:35:00,
2013-01-17 06:40:00,14.5,8.0,30.45,North,350,0.0,0.0,75,0.00,,CLR,0.00,0.00,VWS V14.01,2013-01-17 13:40:00,
2013-01-17 06:45:00,14.4,7.9,30.45,North,350,0.0,0.0,75,0.00,,CLR,0.00,0.00,VWS V14.01,2013-01-17 13:45:00,
2013-01-17 06:51:00,14.4,7.9,30.45,North,350,0.0,0.0,75,0.00,,CLR,0.00,0.00,VWS V14.01,2013-01-17 13:51:00,
2013-01-17 06:56:00,14.3,7.8,30.45,North,350,0.0,0.0,75,0.00,,CLR,0.00,0.00,VWS V14.01,2013-01-17 13:56:00,
2013-01-17 07:01:00,14.2,7.7,30.45,North,350,0.0,0.0,75,0.00,,CLR,0.00,0.00,VWS V14.01,2013-01-17 14:01:00,
2013-01-17 07:06:00,14.1,7.7,30.46,North,350,0.0,1.0,75,0.00,,CLR,0.00,0.00,VWS V14.01,2013-01-17 14:06:00,
2013-01-17 07:11:00,14.0,7.8,30.46,North,350,0.0,2.0,76,0.00,,CLR,0.00,0.00,VWS V14.01,2013-01-17 14:11:00,
2013-01-17 07:16:00,14.0,7.8,30.46,North,350,0.0,0.0,76,0.00,,CLR,0.00,5.00,VWS V14.01,2013-01-17 14:16:00,
2013-01-17 07:21:00,13.9,7.8,30.46,North,350,0.0,0.0,76,0.00,,CLR,0.00,7.00,VWS V14.01,2013-01-17 14:21:00,
2013-01-17 07:26:00,13.9,7.8,30.46,North,350,0.0,0.0,76,0.00,,CLR,0.00,9.00,VWS V14.01,2013-01-17 14:26:00,
2013-01-17 07:31:00,13.9,8.0,30.46,North,350,0.0,0.0,77,0.00,,CLR,0.00,11.00,VWS V14.01,2013-01-17 14:31:00,
2013-01-17 07:36:00,13.9,8.0,30.46,North,350,1.0,3.0,77,0.00,,CLR,0.00,12.00,VWS V14.01,2013-01-17 14:36:00,
2013-01-17 07:41:00,14.0,8.4,30.46,North,350,0.0,3.0,78,0.00,,CLR,0.00,16.00,VWS V14.01,2013-01-17 14:41:00,
2013-01-17 07:47:00,14.1,8.5,30.46,North,350,0.0,0.0,78,0.00,,CLR,0.00,16.00,VWS V14.01,2013-01-17 14:47:00,
2013-01-17 07:52:00,14.3,9.0,30.46,North,350,0.0,0.0,79,0.00,,CLR,0.00,18.00,VWS V14.01,2013-01-17 14:52:00,
2013-01-17 07:57:00,14.4,9.1,30.46,North,350,1.0,1.0,79,0.00,,CLR,0.00,19.00,VWS V14.01,2013-01-17 14:57:00,
2013-01-17 08:02:00,14.7,9.4,30.47,North,350,0.0,1.0,79,0.00,,CLR,0.00,19.00,VWS V14.01,2013-01-17 15:02:00,
2013-01-17 08:07:00,15.0,10.0,30.47,North,350,0.0,2.0,80,0.00,,CLR,0.00,21.00,VWS V14.01,2013-01-17 15:07:00,
2013-01-17 08:12:00,15.4,10.4,30.47,North,350,0.0,4.0,80,0.00,,CLR,0.00,21.00,VWS V14.01,2013-01-17 15:12:00,
2013-01-17 08:17:00,16.1,11.0,30.47,North,350,0.0,5.0,80,0.00,,CLR,0.00,23.00,VWS V14.01,2013-01-17 15:17:00,
2013-01-17 08:22:00,16.8,11.7,30.47,North,350,0.0,4.0,80,0.00,,CLR,0.00,23.00,VWS V14.01,2013-01-17 15:22:00,
2013-01-17 08:27:00,17.6,12.2,30.47,North,350,1.0,2.0,79,0.00,,CLR,0.00,26.00,VWS V14.01,2013-01-17 15:27:00,
2013-01-17 08:32:00,18.2,12.5,30.47,North,350,0.0,3.0,78,0.00,,CLR,0.00,25.00,VWS V14.01,2013-01-17 15:32:00,
2013-01-17 08:37:00,18.8,12.5,30.47,North,350,0.0,3.0,76,0.00,,CLR,0.00,25.00,VWS V14.01,2013-01-17 15:37:00,
2013-01-17 08:43:00,19.2,12.6,30.48,North,350,0.0,0.0,75,0.00,,CLR,0.00,28.00,VWS V14.01,2013-01-17 15:43:00,
2013-01-17 08:48:00,19.4,12.5,30.48,North,350,0.0,2.0,74,0.00,,CLR,0.00,26.00,VWS V14.01,2013-01-17 15:48:00,
2013-01-17 08:53:00,20.1,12.9,30.48,North,350,2.0,5.0,73,0.00,,CLR,0.00,26.00,VWS V14.01,2013-01-17 15:53:00,
2013-01-17 08:58:00,20.8,13.2,30.48,North,355,3.0,6.0,72,0.00,,CLR,0.00,26.00,VWS V14.01,2013-01-17 15:58:00,
2013-01-17 09:03:00,21.5,13.2,30.48,North,355,0.0,2.0,70,0.00,,CLR,0.00,28.00,VWS V14.01,2013-01-17 16:03:00,
2013-01-17 09:08:00,22.3,13.7,30.49,NNE,14,0.0,7.0,69,0.00,,CLR,0.00,30.00,VWS V14.01,2013-01-17 16:08:00,
2013-01-17 09:13:00,23.1,13.8,30.49,NNE,24,0.0,5.0,67,0.00,,CLR,0.00,35.00,VWS V14.01,2013-01-17 16:13:00,
2013-01-17 09:18:00,23.9,13.9,30.49,NE,46,0.0,5.0,65,0.00,,CLR,0.00,37.00,VWS V14.01,2013-01-17 16:18:00,
2013-01-17 09:23:00,24.5,13.7,30.49,NE,46,0.0,3.0,63,0.00,,CLR,0.00,42.00,VWS V14.01,2013-01-17 16:23:00,
2013-01-17 09:28:00,25.0,13.8,30.49,NE,42,5.0,5.0,62,0.00,,CLR,0.00,309.00,VWS V14.01,2013-01-17 16:28:00,
2013-01-17 09:33:00,25.4,13.8,30.49,NE,39,0.0,5.0,61,0.00,,CLR,0.00,62.00,VWS V14.01,2013-01-17 16:33:00,
2013-01-17 09:38:00,25.9,13.9,30.49,NE,51,0.0,4.0,60,0.00,,CLR,0.00,425.00,VWS V14.01,2013-01-17 16:38:00,
2013-01-17 09:43:00,27.2,14.4,30.49,ENE,63,0.0,4.0,58,0.00,,CLR,0.00,418.00,VWS V14.01,2013-01-17 16:43:00,
2013-01-17 09:49:00,28.5,14.0,30.49,NNE,24,1.0,5.0,54,0.00,,CLR,0.00,33.00,VWS V14.01,2013-01-17 16:49:00,
2013-01-17 09:54:00,28.8,14.3,30.49,NE,49,1.0,6.0,54,0.00,,CLR,0.00,37.00,VWS V14.01,2013-01-17 16:54:00,
2013-01-17 09:59:00,29.0,14.0,30.49,NE,35,5.0,6.0,53,0.00,,CLR,0.00,35.00,VWS V14.01,2013-01-17 16:59:00,
2013-01-17 10:04:00,29.2,14.2,30.49,NNE,19,0.0,7.0,53,0.00,,CLR,0.00,37.00,VWS V14.01,2013-01-17 17:04:00,
2013-01-17 10:09:00,29.4,14.4,30.49,NNE,21,2.0,7.0,53,0.00,,CLR,0.00,97.00,VWS V14.01,2013-01-17 17:09:00,
2013-01-17 10:14:00,29.8,14.3,30.49,NNE,29,4.0,8.0,52,0.00,,CLR,0.00,501.00,VWS V14.01,2013-01-17 17:14:00,
2013-01-17 10:19:00,31.8,14.8,30.49,NNE,24,5.0,5.0,49,0.00,,CLR,0.00,512.00,VWS V14.01,2013-01-17 17:19:00,
2013-01-17 10:24:00,32.8,14.3,30.49,ENE,68,0.0,6.0,46,0.00,,CLR,0.00,520.00,VWS V14.01,2013-01-17 17:24:00,
2013-01-17 10:29:00,33.5,14.9,30.49,ENE,78,2.0,4.0,46,0.00,,CLR,0.00,531.00,VWS V14.01,2013-01-17 17:29:00,
2013-01-17 10:34:00,33.9,14.8,30.48,NE,38,5.0,7.0,45,0.00,,CLR,0.00,538.00,VWS V14.01,2013-01-17 17:34:00,
2013-01-17 10:39:00,34.4,14.8,30.48,NW,315,3.0,3.0,44,0.00,,CLR,0.00,547.00,VWS V14.01,2013-01-17 17:39:00,
2013-01-17 10:44:00,34.8,15.1,30.48,North,355,4.0,5.0,44,0.00,,CLR,0.00,554.00,VWS V14.01,2013-01-17 17:44:00,
2013-01-17 10:49:00,35.5,15.2,30.48,North,9,4.0,4.0,43,0.00,,CLR,0.00,559.00,VWS V14.01,2013-01-17 17:49:00,
2013-01-17 10:54:00,35.8,15.5,30.47,NNW,344,3.0,5.0,43,0.00,,CLR,0.00,564.00,VWS V14.01,2013-01-17 17:54:00,
2013-01-17 10:59:00,35.9,15.1,30.47,NNW,346,2.0,4.0,42,0.00,,CLR,0.00,570.00,VWS V14.01,2013-01-17 17:59:00,
2013-01-17 11:04:00,36.5,15.6,30.47,NNW,340,3.0,6.0,42,0.00,,CLR,0.00,577.00,VWS V14.01,2013-01-17 18:04:00,
2013-01-17 11:09:00,36.8,15.3,30.47,NNE,20,0.0,0.0,41,0.00,,CLR,0.00,582.00,VWS V14.01,2013-01-17 18:09:00,
2013-01-17 11:14:00,37.5,15.4,30.46,NNE,30,0.0,2.0,40,0.00,,CLR,0.00,587.00,VWS V14.01,2013-01-17 18:14:00,
2013-01-17 11:20:00,37.4,15.3,30.46,ENE,57,3.0,5.0,40,0.00,,CLR,0.00,592.00,VWS V14.01,2013-01-17 18:20:00,
2013-01-17 11:25:00,38.3,15.5,30.45,NNE,19,2.0,7.0,39,0.00,,CLR,0.00,596.00,VWS V14.01,2013-01-17 18:25:00,
2013-01-17 11:30:00,38.8,16.0,30.45,North,9,1.0,4.0,39,0.00,,CLR,0.00,599.00,VWS V14.01,2013-01-17 18:30:00,
2013-01-17 11:35:00,39.4,15.9,30.45,NNE,19,6.0,6.0,38,0.00,,CLR,0.00,601.00,VWS V14.01,2013-01-17 18:35:00,
2013-01-17 11:40:00,39.5,15.4,30.45,East,80,3.0,5.0,37,0.00,,CLR,0.00,605.00,VWS V14.01,2013-01-17 18:40:00,
2013-01-17 11:45:00,39.8,15.7,30.45,NE,47,0.0,7.0,37,0.00,,CLR,0.00,606.00,VWS V14.01,2013-01-17 18:45:00,
2013-01-17 11:50:00,39.4,15.9,30.44,NNE,30,1.0,1.0,38,0.00,,CLR,0.00,606.00,VWS V14.01,2013-01-17 18:50:00,
2013-01-17 11:55:00,39.7,16.2,30.44,NE,38,0.0,4.0,38,0.00,,CLR,0.00,610.00,VWS V14.01,2013-01-17 18:55:00,
2013-01-17 12:00:00,41.1,16.8,30.44,NNE,13,1.0,7.0,37,0.00,,CLR,0.00,608.00,VWS V14.01,2013-01-17 19:00:00,
2013-01-17 12:05:00,40.5,15.7,30.44,NNE,26,3.0,3.0,36,0.00,,CLR,0.00,610.00,VWS V14.01,2013-01-17 19:05:00,
2013-01-17 12:10:00,41.5,17.2,30.43,ENE,74,2.0,4.0,37,0.00,,CLR,0.00,610.00,VWS V14.01,2013-01-17 19:10:00,
2013-01-17 12:15:00,41.1,16.2,30.43,North,360,0.0,5.0,36,0.00,,CLR,0.00,610.00,VWS V14.01,2013-01-17 19:15:00,
2013-01-17 12:20:00,42.5,16.1,30.43,ENE,73,3.0,4.0,34,0.00,,CLR,0.00,608.00,VWS V14.01,2013-01-17 19:20:00,
2013-01-17 12:25:00,42.2,17.2,30.43,NNE,19,0.0,3.0,36,0.00,,CLR,0.00,606.00,VWS V14.01,2013-01-17 19:25:00,
2013-01-17 12:30:00,43.1,16.7,30.42,NNE,20,0.0,2.0,34,0.00,,CLR,0.00,603.00,VWS V14.01,2013-01-17 19:30:00,
2013-01-17 12:35:00,43.2,16.7,30.42,NNE,20,2.0,4.0,34,0.00,,CLR,0.00,603.00,VWS V14.01,2013-01-17 19:35:00,
2013-01-17 12:41:00,43.5,17.7,30.42,NNE,20,1.0,3.0,35,0.00,,CLR,0.00,599.00,VWS V14.01,2013-01-17 19:41:00,
2013-01-17 12:46:00,44.9,18.2,30.42,NNW,343,0.0,3.0,34,0.00,,CLR,0.00,598.00,VWS V14.01,2013-01-17 19:46:00,
2013-01-17 12:51:00,45.4,18.0,30.41,NNW,344,0.0,2.0,33,0.00,,CLR,0.00,592.00,VWS V14.01,2013-01-17 19:51:00,
2013-01-17 12:56:00,44.2,16.2,30.41,East,82,0.0,3.0,32,0.00,,CLR,0.00,587.00,VWS V14.01,2013-01-17 19:56:00,
2013-01-17 13:01:00,44.3,17.7,30.41,ENE,74,1.0,3.0,34,0.00,,CLR,0.00,582.00,VWS V14.01,2013-01-17 20:01:00,
2013-01-17 13:06:00,46.0,17.8,30.41,ENE,74,0.0,1.0,32,0.00,,CLR,0.00,575.00,VWS V14.01,2013-01-17 20:06:00,
2013-01-17 13:11:00,45.6,17.5,30.40,ENE,72,0.0,0.0,32,0.00,,CLR,0.00,573.00,VWS V14.01,2013-01-17 20:11:00,
2013-01-17 13:16:00,45.6,17.5,30.40,ENE,67,0.0,3.0,32,0.00,,CLR,0.00,566.00,VWS V14.01,2013-01-17 20:16:00,
2013-01-17 13:21:00,46.3,18.1,30.40,NE,46,0.0,4.0,32,0.00,,CLR,0.00,563.00,VWS V14.01,2013-01-17 20:21:00,
2013-01-17 13:26:00,47.1,18.0,30.40,NE,46,0.0,3.0,31,0.00,,CLR,0.00,554.00,VWS V14.01,2013-01-17 20:26:00,
2013-01-17 13:31:00,45.9,18.4,30.39,NE,46,0.0,3.0,33,0.00,,CLR,0.00,547.00,VWS V14.01,2013-01-17 20:31:00,
2013-01-17 13:36:00,45.9,17.0,30.39,NE,53,0.0,3.0,31,0.00,,CLR,0.00,540.00,VWS V14.01,2013-01-17 20:36:00,
2013-01-17 13:41:00,46.3,17.3,30.39,NE,45,0.0,0.0,31,0.00,,CLR,0.00,531.00,VWS V14.01,2013-01-17 20:41:00,
2013-01-17 13:46:00,47.3,17.5,30.39,NE,54,0.0,3.0,30,0.00,,CLR,0.00,524.00,VWS V14.01,2013-01-17 20:46:00,
2013-01-17 13:52:00,48.4,17.6,30.39,NE,54,0.0,0.0,29,0.00,,CLR,0.00,515.00,VWS V14.01,2013-01-17 20:52:00,
2013-01-17 13:57:00,47.8,17.9,30.39,East,87,0.0,4.0,30,0.00,,CLR,0.00,506.00,VWS V14.01,2013-01-17 20:57:00,
2013-01-17 14:02:00,48.2,18.2,30.38,ENE,78,0.0,4.0,30,0.00,,CLR,0.00,496.00,VWS V14.01,2013-01-17 21:02:00,
2013-01-17 14:07:00,47.9,18.0,30.38,ENE,78,0.0,0.0,30,0.00,,CLR,0.00,487.00,VWS V14.01,2013-01-17 21:07:00,
2013-01-17 14:12:00,50.4,19.4,30.38,ENE,78,0.0,2.0,29,0.00,,CLR,0.00,475.00,VWS V14.01,2013-01-17 21:12:00,
2013-01-17 14:17:00,50.8,18.0,30.38,ENE,78,0.0,1.0,27,0.00,,CLR,0.00,464.00,VWS V14.01,2013-01-17 21:17:00,
2013-01-17 14:22:00,49.6,17.0,30.38,ENE,76,0.0,4.0,27,0.00,,CLR,0.00,454.00,VWS V14.01,2013-01-17 21:22:00,
2013-01-17 14:27:00,49.9,17.3,30.38,ENE,76,0.0,1.0,27,0.00,,CLR,0.00,441.00,VWS V14.01,2013-01-17 21:27:00,
2013-01-17 14:32:00,49.4,16.8,30.38,ENE,78,0.0,3.0,27,0.00,,CLR,0.00,429.00,VWS V14.01,2013-01-17 21:32:00,
2013-01-17 14:37:00,49.7,17.9,30.38,East,86,0.0,0.0,28,0.00,,CLR,0.00,418.00,VWS V14.01,2013-01-17 21:37:00,
2013-01-17 14:42:00,50.5,17.8,30.38,ESE,103,0.0,3.0,27,0.00,,CLR,0.00,408.00,VWS V14.01,2013-01-17 21:42:00,
2013-01-17 14:47:00,50.6,17.0,30.37,ESE,103,1.0,1.0,26,0.00,,CLR,0.00,396.00,VWS V14.01,2013-01-17 21:47:00,
2013-01-17 14:52:00,51.0,17.3,30.37,ESE,103,0.0,1.0,26,0.00,,CLR,0.00,380.00,VWS V14.01,2013-01-17 21:52:00,
2013-01-17 14:57:00,51.2,17.5,30.37,ESE,103,2.0,3.0,26,0.00,,CLR,0.00,369.00,VWS V14.01,2013-01-17 21:57:00,
2013-01-17 15:03:00,51.2,17.5,30.37,ESE,103,0.0,0.0,26,0.00,,CLR,0.00,355.00,VWS V14.01,2013-01-17 22:03:00,
2013-01-17 15:08:00,51.2,17.5,30.37,ESE,103,0.0,1.0,26,0.00,,CLR,0.00,341.00,VWS V14.01,2013-01-17 22:08:00,
2013-01-17 15:13:00,51.5,17.8,30.37,ESE,103,0.0,0.0,26,0.00,,CLR,0.00,327.00,VWS V14.01,2013-01-17 22:13:00,
2013-01-17 15:18:00,51.6,17.9,30.37,ESE,103,0.0,1.0,26,0.00,,CLR,0.00,315.00,VWS V14.01,2013-01-17 22:18:00,
2013-01-17 15:23:00,52.0,17.3,30.37,ESE,103,0.0,1.0,25,0.00,,CLR,0.00,299.00,VWS V14.01,2013-01-17 22:23:00,
2013-01-17 15:28:00,52.5,17.7,30.37,ESE,103,0.0,1.0,25,0.00,,CLR,0.00,283.00,VWS V14.01,2013-01-17 22:28:00,
2013-01-17 15:33:00,52.5,16.8,30.37,ESE,103,0.0,3.0,24,0.00,,CLR,0.00,271.00,VWS V14.01,2013-01-17 22:33:00,
2013-01-17 15:38:00,52.6,17.8,30.37,ESE,103,0.0,1.0,25,0.00,,CLR,0.00,253.00,VWS V14.01,2013-01-17 22:38:00,
2013-01-17 15:43:00,53.0,17.2,30.37,ESE,109,0.0,4.0,24,0.00,,CLR,0.00,223.00,VWS V14.01,2013-01-17 22:43:00,
2013-01-17 15:48:00,52.8,17.0,30.37,ESE,109,0.0,1.0,24,0.00,,CLR,0.00,172.00,VWS V14.01,2013-01-17 22:48:00,
2013-01-17 15:53:00,52.8,17.0,30.37,ESE,109,0.0,2.0,24,0.00,,CLR,0.00,113.00,VWS V14.01,2013-01-17 22:53:00,
2013-01-17 15:59:00,52.9,17.1,30.37,ESE,115,0.0,3.0,24,0.00,,CLR,0.00,51.00,VWS V14.01,2013-01-17 22:59:00,
2013-01-17 16:04:00,52.8,17.0,30.37,ESE,114,0.0,3.0,24,0.00,,CLR,0.00,47.00,VWS V14.01,2013-01-17 23:04:00,
2013-01-17 16:09:00,52.7,16.9,30.37,ESE,115,0.0,2.0,24,0.00,,CLR,0.00,53.00,VWS V14.01,2013-01-17 23:09:00,
2013-01-17 16:14:00,52.4,15.7,30.37,SE,124,0.0,0.0,23,0.00,,CLR,0.00,53.00,VWS V14.01,2013-01-17 23:14:00,
2013-01-17 16:19:00,52.1,16.4,30.37,SE,124,0.0,0.0,24,0.00,,CLR,0.00,37.00,VWS V14.01,2013-01-17 23:19:00,
2013-01-17 16:24:00,51.8,16.2,30.37,SE,124,0.0,0.0,24,0.00,,CLR,0.00,26.00,VWS V14.01,2013-01-17 23:24:00,
2013-01-17 16:29:00,51.6,17.0,30.37,SE,124,0.0,0.0,25,0.00,,CLR,0.00,28.00,VWS V14.01,2013-01-17 23:29:00,
2013-01-17 16:34:00,51.2,15.7,30.37,SE,124,0.0,1.0,24,0.00,,CLR,0.00,28.00,VWS V14.01,2013-01-17 23:34:00,
2013-01-17 16:39:00,50.9,16.4,30.37,SE,124,0.0,0.0,25,0.00,,CLR,0.00,21.00,VWS V14.01,2013-01-17 23:39:00,
2013-01-17 16:44:00,50.6,16.1,30.37,South,171,3.0,5.0,25,0.00,,CLR,0.00,21.00,VWS V14.01,2013-01-17 23:44:00,
2013-01-17 16:49:00,50.3,15.8,30.37,South,171,0.0,1.0,25,0.00,,CLR,0.00,18.00,VWS V14.01,2013-01-17 23:49:00,
2013-01-17 16:54:00,49.9,15.5,30.37,South,171,0.0,2.0,25,0.00,,CLR,0.00,16.00,VWS V14.01,2013-01-17 23:54:00,
2013-01-17 16:59:00,49.6,15.2,30.37,South,171,0.0,0.0,25,0.00,,CLR,0.00,14.00,VWS V14.01,2013-01-17 23:59:00,
2013-01-17 17:05:00,49.2,15.8,30.37,South,171,0.0,0.0,26,0.00,,CLR,0.00,12.00,VWS V14.01,2013-01-18 00:05:00,
2013-01-17 17:10:00,48.8,16.3,30.37,South,171,0.0,0.0,27,0.00,,CLR,0.00,9.00,VWS V14.01,2013-01-18 00:10:00,
2013-01-17 17:15:00,48.4,16.0,30.37,South,171,0.0,0.0,27,0.00,,CLR,0.00,7.00,VWS V14.01,2013-01-18 00:15:00,
2013-01-17 17:20:00,48.1,15.7,30.37,South,171,0.0,0.0,27,0.00,,CLR,0.00,5.00,VWS V14.01,2013-01-18 00:20:00,
2013-01-17 17:25:00,47.8,15.5,30.37,South,171,0.0,0.0,27,0.00,,CLR,0.00,0.00,VWS V14.01,2013-01-18 00:25:00,
2013-01-17 17:30:00,47.4,15.9,30.37,South,171,0.0,0.0,28,0.00,,CLR,0.00,0.00,VWS V14.01,2013-01-18 00:30:00,
2013-01-17 17:35:00,47.1,15.7,30.37,South,171,0.0,0.0,28,0.00,,CLR,0.00,0.00,VWS V14.01,2013-01-18 00:35:00,
2013-01-17 17:40:00,46.8,15.4,30.37,South,171,0.0,0.0,28,0.00,,CLR,0.00,0.00,VWS V14.01,2013-01-18 00:40:00,
2013-01-17 17:45:00,46.3,15.8,30.37,South,171,0.0,0.0,29,0.00,,CLR,0.00,0.00,VWS V14.01,2013-01-18 00:45:00,
2013-01-17 17:50:00,45.9,15.4,30.37,South,171,0.0,0.0,29,0.00,,CLR,0.00,0.00,VWS V14.01,2013-01-18 00:50:00,
2013-01-17 18:32:00,42.2,14.5,30.38,South,171,0.0,0.0,32,0.00,,CLR,0.00,0.00,VWS V14.01,2013-01-18 01:32:00,
2013-01-17 18:37:00,41.6,14.6,30.38,South,171,0.0,1.0,33,0.00,,CLR,0.00,0.00,VWS V14.01,2013-01-18 01:37:00,
2013-01-17 18:42:00,41.1,14.2,30.38,South,171,0.0,0.0,33,0.00,,CLR,0.00,0.00,VWS V14.01,2013-01-18 01:42:00,
2013-01-17 18:47:00,40.7,14.5,30.38,South,171,0.0,0.0,34,0.00,,CLR,0.00,0.00,VWS V14.01,2013-01-18 01:47:00,
2013-01-17 18:52:00,40.2,14.1,30.38,South,171,0.0,2.0,34,0.00,,CLR,0.00,0.00,VWS V14.01,2013-01-18 01:52:00,
2013-01-17 18:57:00,39.8,14.4,30.38,South,171,0.0,0.0,35,0.00,,CLR,0.00,0.00,VWS V14.01,2013-01-18 01:57:00,
2013-01-17 19:02:00,39.5,14.1,30.38,South,171,0.0,1.0,35,0.00,,CLR,0.00,0.00,VWS V14.01,2013-01-18 02:02:00,
2013-01-17 19:07:00,39.0,13.7,30.38,South,171,0.0,0.0,35,0.00,,CLR,0.00,0.00,VWS V14.01,2013-01-18 02:07:00,
2013-01-17 19:12:00,38.6,14.0,30.39,South,171,0.0,0.0,36,0.00,,CLR,0.00,0.00,VWS V14.01,2013-01-18 02:12:00,
2013-01-17 19:17:00,38.3,13.7,30.39,South,171,0.0,0.0,36,0.00,,CLR,0.00,0.00,VWS V14.01,2013-01-18 02:17:00,
2013-01-17 19:22:00,37.9,14.0,30.39,South,171,0.0,1.0,37,0.00,,CLR,0.00,0.00,VWS V14.01,2013-01-18 02:22:00,
2013-01-17 19:27:00,37.7,13.8,30.39,South,171,1.0,1.0,37,0.00,,CLR,0.00,0.00,VWS V14.01,2013-01-18 02:27:00,
2013-01-17 19:32:00,37.4,13.5,30.39,South,171,0.0,1.0,37,0.00,,CLR,0.00,0.00,VWS V14.01,2013-01-18 02:32:00,
2013-01-17 19:38:00,37.1,13.9,30.39,South,171,0.0,0.0,38,0.00,,CLR,0.00,0.00,VWS V14.01,2013-01-18 02:38:00,
2013-01-17 19:43:00,36.7,14.1,30.39,South,171,0.0,1.0,39,0.00,,CLR,0.00,0.00,VWS V14.01,2013-01-18 02:43:00,
2013-01-17 19:48:00,36.4,13.8,30.39,South,171,0.0,0.0,39,0.00,,CLR,0.00,0.00,VWS V14.01,2013-01-18 02:48:00,
2013-01-17 19:53:00,36.1,13.6,30.39,South,171,0.0,0.0,39,0.00,,CLR,0.00,0.00,VWS V14.01,2013-01-18 02:53:00,
2013-01-17 19:58:00,35.7,13.2,30.38,South,171,0.0,0.0,39,0.00,,CLR,0.00,0.00,VWS V14.01,2013-01-18 02:58:00,
2013-01-17 20:03:00,35.3,13.4,30.39,South,171,0.0,0.0,40,0.00,,CLR,0.00,0.00,VWS V14.01,2013-01-18 03:03:00,
2013-01-17 20:08:00,35.0,13.1,30.39,South,171,0.0,0.0,40,0.00,,CLR,0.00,0.00,VWS V14.01,2013-01-18 03:08:00,
2013-01-17 20:13:00,34.6,12.8,30.39,South,171,1.0,2.0,40,0.00,,CLR,0.00,0.00,VWS V14.01,2013-01-18 03:13:00,
2013-01-17 20:18:00,34.3,12.5,30.39,South,171,2.0,2.0,40,0.00,,CLR,0.00,0.00,VWS V14.01,2013-01-18 03:18:00,
2013-01-17 20:23:00,34.0,12.8,30.39,South,171,0.0,3.0,41,0.00,,CLR,0.00,0.00,VWS V14.01,2013-01-18 03:23:00,
2013-01-17 20:28:00,33.8,12.6,30.39,South,171,0.0,0.0,41,0.00,,CLR,0.00,0.00,VWS V14.01,2013-01-18 03:28:00,
2013-01-17 20:33:00,33.5,12.3,30.39,South,171,0.0,0.0,41,0.00,,CLR,0.00,0.00,VWS V14.01,2013-01-18 03:33:00,
2013-01-17 20:38:00,33.3,12.7,30.39,South,171,0.0,0.0,42,0.00,,CLR,0.00,0.00,VWS V14.01,2013-01-18 03:38:00,
2013-01-17 20:43:00,33.1,12.5,30.39,South,171,0.0,0.0,42,0.00,,CLR,0.00,0.00,VWS V14.01,2013-01-18 03:43:00,
2013-01-17 20:48:00,32.9,12.3,30.39,South,171,1.0,2.0,42,0.00,,CLR,0.00,0.00,VWS V14.01,2013-01-18 03:48:00,
2013-01-17 20:53:00,32.6,12.6,30.38,South,171,0.0,2.0,43,0.00,,CLR,0.00,0.00,VWS V14.01,2013-01-18 03:53:00,
2013-01-17 20:58:00,32.2,12.2,30.38,South,180,0.0,4.0,43,0.00,,CLR,0.00,0.00,VWS V14.01,2013-01-18 03:58:00,
2013-01-17 21:03:00,31.8,12.4,30.38,SSW,194,0.0,4.0,44,0.00,,CLR,0.00,0.00,VWS V14.01,2013-01-18 04:03:00,
2013-01-17 21:08:00,31.5,12.6,30.39,SSW,196,2.0,4.0,45,0.00,,CLR,0.00,0.00,VWS V14.01,2013-01-18 04:08:00,
2013-01-17 21:14:00,31.2,12.4,30.38,SSW,202,0.0,4.0,45,0.00,,CLR,0.00,0.00,VWS V14.01,2013-01-18 04:14:00,
2013-01-17 21:19:00,31.0,12.7,30.38,SSW,207,0.0,4.0,46,0.00,,CLR,0.00,0.00,VWS V14.01,2013-01-18 04:19:00,
2013-01-17 21:24:00,30.8,12.5,30.38,SW,215,0.0,4.0,46,0.00,,CLR,0.00,0.00,VWS V14.01,2013-01-18 04:24:00,
2013-01-17 21:29:00,30.6,12.3,30.38,WSW,248,0.0,5.0,46,0.00,,CLR,0.00,0.00,VWS V14.01,2013-01-18 04:29:00,
2013-01-17 21:34:00,30.3,12.5,30.38,West,266,0.0,6.0,47,0.00,,CLR,0.00,0.00,VWS V14.01,2013-01-18 04:34:00,
2013-01-17 21:39:00,30.2,12.9,30.38,West,270,4.0,4.0,48,0.00,,CLR,0.00,0.00,VWS V14.01,2013-01-18 04:39:00,
2013-01-17 21:44:00,30.1,12.8,30.38,West,271,3.0,4.0,48,0.00,,CLR,0.00,0.00,VWS V14.01,2013-01-18 04:44:00,
2013-01-17 21:49:00,30.0,12.7,30.38,West,271,0.0,0.0,48,0.00,,CLR,0.00,0.00,VWS V14.01,2013-01-18 04:49:00,
2013-01-17 21:54:00,29.9,13.1,30.38,West,271,0.0,0.0,49,0.00,,CLR,0.00,0.00,VWS V14.01,2013-01-18 04:54:00,
2013-01-17 21:59:00,29.9,12.6,30.38,West,271,0.0,0.0,48,0.00,,CLR,0.00,0.00,VWS V14.01,2013-01-18 04:59:00,
2013-01-17 22:00:00,29.9,12.6,30.38,West,271,0.0,0.0,48,0.00,,CLR,0.00,0.00,VWS V14.01,2013-01-18 05:00:00,
2013-01-17 22:01:00,29.8,12.5,30.38,West,271,0.0,0.0,48,0.00,,CLR,0.00,0.00,VWS V14.01,2013-01-18 05:01:00,
2013-01-17 22:03:00,29.8,13.0,30.38,West,271,0.0,0.0,49,0.00,,CLR,0.00,0.00,VWS V14.01,2013-01-18 05:03:00,
2013-01-17 22:08:00,29.7,12.4,30.38,West,271,0.0,0.0,48,0.00,,CLR,0.00,0.00,VWS V14.01,2013-01-18 05:08:00,
2013-01-17 22:13:00,29.7,12.4,30.38,West,271,0.0,0.0,48,0.00,,CLR,0.00,0.00,VWS V14.01,2013-01-18 05:13:00,
2013-01-17 22:18:00,29.5,12.7,30.38,West,270,0.0,0.0,49,0.00,,CLR,0.00,0.00,VWS V14.01,2013-01-18 05:18:00,
2013-01-17 22:23:00,29.3,13.0,30.38,West,271,2.0,3.0,50,0.00,,CLR,0.00,0.00,VWS V14.01,2013-01-18 05:23:00,
2013-01-17 22:29:00,29.1,12.8,30.38,West,270,1.0,3.0,50,0.00,,CLR,0.00,0.00,VWS V14.01,2013-01-18 05:29:00,
2013-01-17 22:34:00,28.9,12.6,30.38,West,270,2.0,4.0,50,0.00,,CLR,0.00,0.00,VWS V14.01,2013-01-18 05:34:00,
2013-01-17 22:39:00,28.8,13.0,30.38,West,271,2.0,4.0,51,0.00,,CLR,0.00,0.00,VWS V14.01,2013-01-18 05:39:00,
2013-01-17 22:44:00,28.6,12.8,30.38,West,271,0.0,3.0,51,0.00,,CLR,0.00,0.00,VWS V14.01,2013-01-18 05:44:00,
2013-01-17 22:49:00,28.5,12.7,30.38,West,271,3.0,3.0,51,0.00,,CLR,0.00,0.00,VWS V14.01,2013-01-18 05:49:00,
2013-01-17 22:54:00,28.3,12.5,30.38,West,271,1.0,4.0,51,0.00,,CLR,0.00,0.00,VWS V14.01,2013-01-18 05:54:00,
2013-01-17 22:59:00,28.1,12.8,30.38,West,271,0.0,4.0,52,0.00,,CLR,0.00,0.00,VWS V14.01,2013-01-18 05:59:00,
2013-01-17 23:04:00,27.9,12.6,30.38,West,271,2.0,3.0,52,0.00,,CLR,0.00,0.00,VWS V14.01,2013-01-18 06:04:00,
2013-01-17 23:09:00,27.8,12.5,30.38,West,271,0.0,0.0,52,0.00,,CLR,0.00,0.00,VWS V14.01,2013-01-18 06:09:00,
2013-01-17 23:14:00,27.6,12.3,30.38,West,271,1.0,2.0,52,0.00,,CLR,0.00,0.00,VWS V14.01,2013-01-18 06:14:00,
2013-01-17 23:19:00,27.5,12.2,30.38,West,271,0.0,1.0,52,0.00,,CLR,0.00,0.00,VWS V14.01,2013-01-18 06:19:00,
2013-01-17 23:24:00,27.3,12.0,30.38,West,271,0.0,0.0,52,0.00,,CLR,0.00,0.00,VWS V14.01,2013-01-18 06:24:00,
2013-01-17 23:29:00,27.2,11.9,30.38,West,271,0.0,0.0,52,0.00,,CLR,0.00,0.00,VWS V14.01,2013-01-18 06:29:00,
2013-01-17 23:34:00,27.1,11.8,30.38,West,271,0.0,0.0,52,0.00,,CLR,0.00,0.00,VWS V14.01,2013-01-18 06:34:00,
2013-01-17 23:39:00,27.0,11.7,30.38,West,270,0.0,0.0,52,0.00,,CLR,0.00,0.00,VWS V14.01,2013-01-18 06:39:00,
2013-01-17 23:44:00,26.9,11.6,30.38,West,271,0.0,0.0,52,0.00,,CLR,0.00,0.00,VWS V14.01,2013-01-18 06:44:00,
2013-01-17 23:49:00,26.8,11.6,30.38,West,270,0.0,0.0,52,0.00,,CLR,0.00,0.00,VWS V14.01,2013-01-18 06:49:00,
2013-01-17 23:55:00,26.6,11.8,30.38,West,270,0.0,0.0,53,0.00,,CLR,0.00,0.00,VWS V14.01,2013-01-18 06:55:00,